Regional Weather Roundup
Issued by NWS

Home | Current Version | Previous Version | Text Only | Print | Product List | Glossary On
Versions: 1 2 3 4 5 6 7 8 9 10 11 12 13 14 15 16 17 18 19 20 21 22 23 24 25 26 27 28 29 30 31 32 33 34 35 36 37 38 39 40 41 42 43 44 45 46 47 48 49 50
000
ASUS43 KMKX 202210
RWRWI

WISCONSIN REGIONAL WEATHER ROUNDUP
NATIONAL WEATHER SERVICE MILWAUKEE/SULLIVAN WI
400 PM CST TUE FEB 20 2018

NOTE: "FAIR" INDICATES FEW OR NO CLOUDS BELOW 12,000 FEET WITH NO
SIGNIFICANT WEATHER AND/OR OBSTRUCTIONS TO VISIBILITY.

WIZ001-002-006>008-014>016-023>028-202300-
NORTHWEST WISCONSIN

CITY           SKY/WX    TMP DP  RH WIND       PRES   REMARKS
SUPERIOR ARPT  CLOUDY    18  10  72 W7        29.99R WCI   8
ASHLAND        CLOUDY    18  14  84 W10       29.96R WCI   6
HAYWARD        CLOUDY    19  14  81 VRB3      29.95R
SIREN          CLOUDY    18  11  73 W8        30.01R WCI   8
CUMBERLAND     CLOUDY    18  12  79 W13       29.98R WCI   4
RICE LAKE      CLOUDY    19  15  85 W12       30.01R WCI   7
CHETEK         CLOUDY    20  16  83 W8        30.00R WCI  11
LADYSMITH      CLOUDY    24  19  83 W10       29.96R WCI  13
EAU CLAIRE     CLOUDY    22  16  78 W12       29.99R WCI  10
MENOMONIE      CLOUDY    22  16  76 W14       30.02R WCI   9
NEW RICHMOND   CLOUDY    19  11  70 W13       30.03R WCI   7
OSCEOLA        PTSUNNY   22  11  63 NW10      30.06R WCI  11
$$

WIZ003>005-009-010-017-018-202300-
NORTH CENTRAL WISCONSIN

CITY           SKY/WX    TMP DP  RH WIND       PRES   REMARKS
MANITOWISH WTR CLOUDY    21  21 100 NW10      29.85R WCI  10
ARBOR VITAE    CLOUDY    24  22  91 NW7       29.84R WCI  16
WOODRUFF       CLOUDY    24  22  91 NW7       29.84R WCI  16
RHINELANDER    CLOUDY    25  23  92 W14       29.85R WCI  13
EAGLE RIVER    CLOUDY    25  23  94 NW10      29.83R WCI  15
LAND O LAKES   CLOUDY    25  22  91 NW6       29.83R WCI  18
PHILLIPS       CLOUDY    22  20  94 W6        29.88R WCI  14
TOMAHAWK       CLOUDY    23  21  91 W9        29.88R WCI  13
MEDFORD        CLOUDY    22  19  88 W10G18    29.89R WCI  11
MERRILL        CLOUDY    26  23  91 W12G17    29.88R WCI  15
$$

WIZ029-030-035-036-043>047-202300-
CENTRAL WISCONSIN

CITY           SKY/WX    TMP DP  RH WIND       PRES   REMARKS
WAUSAU         CLOUDY    24  22  91 W15       29.88R WCI  11
MOSINEE        CLOUDY    25  25 100 W14G22    29.90R WCI  13
MARSHFIELD     CLOUDY    24  21  88 W13       29.91R WCI  12
STEVENS POINT  CLOUDY    26  25  97 W10       29.90R WCI  16
WAUPACA        CLOUDY    35  31  87 W13       29.88R WCI  26
WAUTOMA        CLOUDY    32  30  92 W17         N/A  WCI  21
WISC RAPIDS    CLOUDY    27  23  85 NW13      29.93R WCI  16
CAMP DOUGLAS   CLOUDY    27  27 100 W15G24    29.95R WCI  15
$$

WIZ011>013-019>022-031-037>040-048>050-202300-
NORTHEAST WISCONSIN

CITY           SKY/WX    TMP DP  RH WIND       PRES   REMARKS
ANTIGO         CLOUDY    27  26  95 W13       29.84R WCI  17
SHAWANO        CLOUDY    35  33  90 W9G18     29.84R WCI  28
OCONTO         CLOUDY    33  32  98 W5        29.84R WCI  28
STURGEON BAY   CLOUDY    34  32  92 W9        29.84R WCI  27
GREEN BAY      CLOUDY    35  32  88 W8        29.84S WCI  29
MANITOWOC      CLOUDY    36  33  89 W13       29.85R WCI  27
APPLETON       CLOUDY    34  34 100 W13       29.82F WCI  25
CLINTONVILLE   CLOUDY    34  31  88 W10       29.86R WCI  26
OSHKOSH        PTSUNNY   35  33  92 W7        29.86R WCI  29
$$

WIZ032>034-041-042-053>061-202300-
SOUTHWEST WISCONSIN

CITY           SKY/WX    TMP DP  RH WIND       PRES   REMARKS
LA CROSSE      CLOUDY    27  21  78 W13       30.02R WCI  16
SPARTA         CLOUDY    25  23  91 W7        30.00R WCI  17
VIROQUA        CLOUDY    25  25 100 W8        29.96R WCI  16
BOSCOBEL       CLOUDY    31  23  72 W10       30.00R WCI  22
PRAIRIE DU CHI CLOUDY    28  22  76 W18       30.02R WCI  16
PLATTEVILLE    CLOUDY    31  29  94 W16G24    29.98R WCI  20
$$

WIZ056-057-062-063-064-067-068-202300-
SOUTH CENTRAL WISCONSIN

CITY           SKY/WX    TMP DP  RH WIND       PRES   REMARKS
REEDSBURG      CLOUDY    31  29  93 W13G18    29.93R WCI  21
BARABOO/DELLS  CLOUDY    32  30  91 NW13      29.91R WCI  22
LONE ROCK      CLOUDY    32  28  85 W17       29.96R WCI  21
MINERAL POINT  CLOUDY    32  32 100 W17G25    29.94R WCI  21
MADISON        CLOUDY    35  33  92 NW7       29.91R WCI  29
MIDDLETON      CLOUDY    35  34  94 W13       29.91R WCI  27
WATERTOWN      CLOUDY    36  36 100 W10       29.88R WCI  28
MONROE         FAIR      32  32 100 W15       29.93R WCI  22
JANESVILLE     CLOUDY    36  36 100 W8        29.90R WCI  29
$$

WIZ051-052-058>065-066-070>072-202300-
SOUTHEAST WISCONSIN

CITY           SKY/WX    TMP DP  RH WIND       PRES   REMARKS
MILWAUKEE      LGT RAIN  44  42  93 CALM      29.83R
WAUKESHA       CLOUDY    36  36 100 W14       29.87R WCI  27
MILWAUKEE/TIMM RAIN      39  36  87 MISG      29.84R
RACINE         LGT RAIN  44  43  96 SW7       29.88R
BURLINGTON     MIX PCPN  38  37  93 W12       29.91R WCI  31
KENOSHA        RAIN      44  41  89 W13       29.88R FOG
FOND DU LAC    CLOUDY    36  32  85 W7        29.87R WCI  30
SHEBOYGAN      CLOUDY    36  34  92 W16G25    29.84R WCI  26
WEST BEND      CLOUDY    36  36 100 W13G20    29.85R WCI  27
JUNEAU         CLOUDY    34  33  96 W6        29.89R WCI  29
$$

LSZ147-162-202300-
LAKE SUPERIOR

STATION/POSITION TIME  TEMP    WIND        PRES    WAVE
                       AIR SEA DIR/SP/G            HT/PER
                 (UTC) (F)     (DEG/KT/KT) (MB)    (FT/S)
DEVILS ISLAND    2000   17     310/  8/ 10 1013.8R
SAXON HARBOR     2030   20     320/  9/ 12 1012.5R
$$

LMZ867-665-643>646-202300-
LAKE MICHIGAN

STATION/POSITION TIME  TEMP    WIND        PRES    WAVE
                       AIR SEA DIR/SP/G            HT/PER
                 (UTC) (F)     (DEG/KT/KT) (MB)    (FT/S)
NORTHPORT PIER   2040   32                 1009.5R
KEWAUNEE LAKESHO 2142   36     280/  8/ 13 1009.2R
SHEBOYGAN LAKESH 2100   39     280/ 18/ 20 1010.3R
PORT WASHINGTON  2040   43     280/  6/ 11 1010.2F
MILWAUKEE LAKESH 2150   42     300/  5/  8   N/A
KENOSHA   LAKESH 2000   53     240/  5/  9 1010.2
$$

TC  - TEMPERATURE IN CELSIUS
VSB - VISIBILITY IN STATUTE MILES
WCI - WIND CHILL INDEX
HX  - HEAT INDEX





USA.gov is the U.S. government's official web portal to all federal, state and local government web resources and services.